FW8256 Weather Reports


time (UTC)temp
F
wind
direction
speed
knots
gust
knots
rain 1hr
in
rain 24hr
in
rain mn
in
humidity
%
barometer
mb
20260507031538 51 20 0.0 0.0 0.00 0.00 0.00 67 1018.3
20260507030037 52 17 0.0 0.0 0.00 0.00 0.00 67 1017.9
20260507024539 53 15 0.0 0.0 0.00 0.00 0.00 65 1017.7
20260507023035 54 17 0.0 0.0 0.00 0.00 0.00 65 1017.5
20260507021533 55 15 0.0 0.0 0.00 0.00 0.00 63 1017.4
20260507020043 56 13 0.0 2.6 0.00 0.00 0.00 59 1017.2
20260507014535 57 54 0.9 2.6 0.00 0.00 0.00 57 1016.9
20260507013033 58 54 0.9 4.3 0.00 0.00 0.00 56 1016.8
20260507011532 59 61 0.9 4.3 0.00 0.00 0.00 55 1016.5
20260507010032 60 63 1.7 4.3 0.00 0.00 0.00 53 1016.4
20260507004533 60 62 0.9 3.5 0.00 0.00 0.00 54 1016.4
20260507003032 61 360 0.9 4.3 0.00 0.00 0.00 54 1016.4
20260507001536 63 59 1.7 6.1 0.00 0.00 0.00 52 1016.3
20260507000029 62 62 0.9 5.2 0.00 0.00 0.00 51 1016.2
20260506234527 64 37 1.7 7.8 0.00 0.00 0.00 51 1016.0
20260506233026 64 38 3.5 10.4 0.00 0.00 0.00 48 1015.9
20260506231528 64 61 2.6 8.7 0.00 0.00 0.00 49 1015.8
20260506230026 65 46 0.0 9.6 0.00 0.00 0.00 50 1015.5
20260506224524 65 47 0.9 7.8 0.00 0.00 0.00 51 1015.5
20260506223023 65 70 1.7 8.7 0.00 0.00 0.00 50 1015.3
20260506221522 64 63 4.3 8.7 0.00 0.00 0.00 48 1015.1
20260506220023 64 19 2.6 7.8 0.00 0.00 0.00 49 1015.1
20260506214520 64 52 1.7 8.7 0.00 0.00 0.00 51 1015.2
20260506213020 64 55 1.7 9.6 0.00 0.00 0.00 51 1015.3
20260506211517 64 43 4.3 8.7 0.00 0.00 0.00 52 1015.6
20260506210021 63 24 3.5 7.8 0.00 0.00 0.00 52 1015.7
20260506204515 63 38 3.5 9.6 0.00 0.00 0.00 52 1015.9
20260506203012 64 55 1.7 8.7 0.00 0.00 0.00 53 1016.0
20260506201510 63 111 1.7 8.7 0.00 0.00 0.00 59 1016.2
20260506200009 62 59 4.3 8.7 0.00 0.00 0.00 56 1016.3
20260506194506 61 11 3.5 7.8 0.00 0.00 0.00 57 1016.4
20260506193007 60 55 1.7 7.0 0.00 0.00 0.00 58 1016.6
20260506191506 60 69 2.6 8.7 0.00 0.00 0.00 59 1016.7
20260506190005 59 26 4.3 8.7 0.00 0.00 0.00 57 1016.7
20260506184503 61 74 1.7 7.0 0.00 0.00 0.00 57 1016.9
20260506183002 61 104 0.9 6.1 0.00 0.00 0.00 58 1016.9
20260506181501 61 89 1.7 7.0 0.00 0.00 0.00 58 1017.1
20260506180001 60 96 1.7 10.4 0.00 0.00 0.00 57 1017.3
20260506174559 61 35 2.6 7.8 0.00 0.00 0.00 56 1017.2
20260506173059 61 55 2.6 7.0 0.00 0.00 0.00 57 1017.4
20260506171558 60 54 3.5 8.7 0.00 0.00 0.00 58 1017.6
20260506170057 59 62 1.7 8.7 0.00 0.00 0.00 57 1017.5
20260506164558 59 71 3.5 10.4 0.00 0.00 0.00 58 1017.4
20260506163054 59 109 2.6 9.6 0.00 0.00 0.00 59 1017.6
20260506161558 58 118 3.5 8.7 0.00 0.00 0.00 59 1017.8
20260506160047 57 78 0.9 7.0 0.00 0.00 0.00 63 1017.5
20260506154556 56 77 1.7 8.7 0.00 0.00 0.00 63 1017.6
20260506153041 55 52 4.3 12.2 0.00 0.00 0.00 65 1017.2
20260506151538 54 116 2.6 8.7 0.00 0.00 0.00 67 1017.2
20260506150034 53 53 3.5 9.6 0.00 0.00 0.00 71 1017.3
20260506144529 51 57 1.7 9.6 0.00 0.00 0.00 73 1017.1
20260506143028 51 59 2.6 8.7 0.00 0.00 0.00 75 1016.8
20260506141525 50 61 2.6 9.6 0.00 0.00 0.00 77 1016.9
20260506140028 49 13 3.5 9.6 0.00 0.00 0.00 77 1016.9
20260506134521 49 47 3.5 10.4 0.00 0.00 0.00 78 1016.9
20260506133039 49 50 1.7 10.4 0.00 0.00 0.00 80 1016.9
20260506131525 48 38 4.3 9.6 0.00 0.00 0.00 80 1017.1
20260506130019 48 15 1.7 7.0 0.00 0.00 0.00 81 1016.9
20260506124516 48 57 2.6 8.7 0.00 0.00 0.00 80 1016.8
20260506123014 48 43 3.5 9.6 0.00 0.00 0.00 81 1016.5
20260506121512 48 25 1.7 7.8 0.00 0.00 0.00 82 1016.1
20260506120018 48 68 3.5 7.0 0.00 0.00 0.00 81 1015.5
20260506114510 48 28 2.6 7.8 0.00 0.00 0.00 81 1015.5
20260506113011 48 52 1.7 7.8 0.00 0.00 0.00 81 1015.4
20260506111507 48 24 2.6 5.2 0.00 0.00 0.00 81 1015.2
20260506110005 48 40 0.9 4.3 0.00 0.00 0.00 80 1015.0
20260506104506 48 57 3.5 7.8 0.00 0.00 0.00 79 1014.9
20260506103107 49 51 2.6 7.0 0.00 0.00 0.00 78 1015.7
20260506101559 49 33 1.7 4.3 0.00 0.00 0.00 78 1015.3
20260506094555 49 28 2.6 9.6 0.00 0.00 0.00 77 1015.1
20260506093052 49 23 3.5 7.8 0.00 0.00 0.00 77 1014.6
20260506091551 49 27 1.7 7.8 0.00 0.00 0.00 77 1014.1
20260506090047 49 22 3.5 8.7 0.00 0.00 0.00 76 1013.9
20260506084546 49 41 2.6 9.6 0.00 0.00 0.00 75 1014.0
20260506083043 49 68 4.3 7.8 0.00 0.00 0.00 73 1013.6
20260506081539 49 40 5.2 9.6 0.00 0.00 0.00 73 1013.2
20260506073036 48 40 0.9 5.2 0.00 0.00 0.00 74 1012.7
20260506071533 48 46 1.7 7.0 0.00 0.00 0.00 73 1012.4
20260506061529 49 61 1.7 3.5 0.00 0.00 0.00 73 1012.5
20260506044520 49 58 1.7 7.8 0.00 0.00 0.00 72 1012.2
20260506043018 49 56 2.6 7.8 0.00 0.00 0.00 73 1012.3
20260506041517 49 24 1.7 5.2 0.00 0.00 0.00 73 1012.4
20260506040032 49 61 4.3 10.4 0.00 0.00 0.00 73 1012.2
20260506034514 49 77 3.5 9.6 0.00 0.00 0.00 76 1012.0
20260506033011 49 28 2.6 13.9 0.00 0.00 0.00 78 1011.9